Location: Stavanger
(58.9670°N, 5.7500°E)
Time: 04:31:32
(UTC+02:00)

ISS - Visible Passes

Search period start: 28 July 2017 00:00
Search period end: 07 August 2017 00:00
Orbit: 400 x 408 km, 51.6° (Epoch: 28 July)

Date Brightness Start Highest point End Pass type
(mag) Time Alt. Az. Time Alt. Az. Time Alt. Az.
28 Jul -2.5 00:43:20 10° WSW 00:45:55 22° S 00:46:57 19° SSE visible
28 Jul -2.5 23:51:11 10° SW 23:53:49 23° S 23:56:09 12° SE visible
29 Jul -1.9 01:27:29 10° WSW 01:28:46 15° SW 01:28:46 15° SW visible
30 Jul -2.3 00:35:07 10° WSW 00:37:29 19° SSW 00:38:01 18° S visible
30 Jul -2.4 23:42:50 10° WSW 23:45:23 21° S 23:47:17 14° SE visible
31 Jul -1.4 01:19:51 10° SW 01:19:54 10° SW 01:19:54 10° SW visible
01 Aug -1.9 00:27:02 10° WSW 00:28:59 15° SSW 00:29:12 15° SSW visible
01 Aug -2.1 23:34:34 10° WSW 23:36:53 18° SSW 23:38:31 13° SSE visible
03 Aug -1.4 00:19:45 10° SW 00:20:21 10° SSW 00:20:28 10° SSW visible
03 Aug -1.7 23:26:32 10° WSW 23:28:16 14° SSW 23:29:49 11° S visible
